Date String (YYYY-MM-DD hh:mm:ss) UTC,Instrument flags,Ambient pressure (hPa),Sample flow (lpm),Bypass flow (lpm),Sample temperature (°C),Ambient temperature (°C),ASC tube jacket temperature (°C),LED temperature (°C),Box temperature (°C),Sample RH (%),Span deviation,Mass concentration (μg/m³),Mass concentration (μg/m³),Mass concentration (μg/m³)
DateTimeUTC,F1_M11,P_M11,Q1_M11,Q2_M11,T1_M11,T2_M11,T3_M11,T4_M11,T5_M11,U1_M11,ZSPAN_M11,X0_M11,X2_M11,X1_M11
2023-01-22 13:00:00,,0819.5,5.02,0.00,22.0,21.5,00.0,30.8,23.7,08.1,0000.0,0001.77,0001.13,0000.83
2023-01-22 13:01:00,,0819.6,5.00,0.00,22.1,22.4,00.0,30.8,24.0,08.1,0000.0,0001.62,0001.09,0000.83
2023-01-22 13:02:00,,0819.5,5.00,0.00,22.2,22.7,00.0,30.8,24.1,08.1,0000.0,0001.64,0001.09,0000.83
2023-01-22 13:03:00,,0819.5,5.00,0.00,22.2,22.1,00.0,30.9,24.1,08.1,0000.0,0001.67,0001.10,0000.83
2023-01-22 13:04:00,,0819.6,5.00,0.00,22.2,21.6,00.0,30.9,23.9,08.1,0000.0,0001.68,0001.10,0000.85
2023-01-22 13:05:00,,0819.6,4.99,0.00,22.2,21.2,00.0,30.9,23.8,08.1,0000.0,0001.66,0001.09,0000.86
2023-01-22 13:06:00,,0819.6,5.00,0.00,22.1,21.0,00.0,30.9,23.8,08.1,0000.0,0001.66,0001.10,0000.87
2023-01-22 13:07:00,,0819.6,5.00,0.00,22.1,20.8,00.0,30.9,23.7,08.1,0000.0,0001.67,0001.10,0000.87
2023-01-22 13:08:00,,0819.5,4.98,0.00,22.0,20.6,00.0,30.9,23.6,08.2,0000.0,0001.63,0001.10,0000.87
2023-01-22 13:09:00,,0819.5,5.00,0.00,22.0,20.5,00.0,30.9,23.5,08.2,0000.0,0001.56,0001.08,0000.86
2023-01-22 13:10:00,,0819.5,4.99,0.00,21.9,20.3,00.0,30.9,23.4,08.2,0000.0,0001.62,0001.12,0000.86
2023-01-22 13:11:00,,0819.5,5.00,0.00,21.9,20.7,00.0,30.8,23.5,08.2,0000.0,0001.68,0001.14,0000.86
2023-01-22 13:12:00,,0819.5,4.99,0.00,22.0,21.7,00.0,30.8,23.8,08.2,0000.0,0001.76,0001.16,0000.85
2023-01-22 13:13:00,,0819.5,4.99,0.00,22.1,22.6,00.0,30.8,24.1,08.1,0000.0,0001.71,0001.14,0000.84
2023-01-22 13:14:00,,0819.5,4.99,0.00,22.2,22.5,00.0,30.9,24.1,08.1,0000.0,0001.79,0001.14,0000.83
2023-01-22 13:15:00,,0819.6,5.01,0.00,22.2,21.9,00.0,30.9,24.1,08.1,0000.0,0001.77,0001.12,0000.82
2023-01-22 13:16:00,,0819.5,4.99,0.00,22.2,21.5,00.0,30.9,23.9,08.1,0000.0,0001.77,0001.11,0000.81
2023-01-22 13:17:00,,0819.5,4.98,0.00,22.2,21.1,00.0,30.9,23.8,08.2,0000.0,0001.78,0001.11,0000.81
2023-01-22 13:18:00,,0819.5,5.01,0.00,22.1,20.9,00.0,30.9,23.7,08.2,0000.0,0001.79,0001.09,0000.79
2023-01-22 13:19:00,,0819.6,5.02,0.00,22.1,20.7,00.0,30.9,23.6,08.2,0000.0,0001.78,0001.08,0000.80
2023-01-22 13:20:00,,0819.5,4.99,0.00,22.0,20.5,00.0,30.9,23.5,08.2,0000.0,0001.75,0001.07,0000.80
2023-01-22 13:21:00,,0819.5,4.99,0.00,22.0,20.4,00.0,30.9,23.5,08.3,0000.0,0001.74,0001.05,0000.81
2023-01-22 13:22:00,,0819.5,4.99,0.00,21.9,20.3,00.0,30.9,23.4,08.3,0000.0,0001.69,0001.03,0000.81
2023-01-22 13:23:00,,0819.6,5.02,0.00,21.9,20.9,00.0,30.8,23.6,08.3,0000.0,0001.71,0001.01,0000.82
2023-01-22 13:24:00,,0819.7,5.00,0.00,22.0,22.0,00.0,30.8,23.9,08.3,0000.0,0001.80,0001.00,0000.82
2023-01-22 13:25:00,,0819.6,5.00,0.00,22.1,22.7,00.0,30.8,24.1,08.3,0000.0,0001.78,0001.02,0000.84
2023-01-22 13:26:00,,0819.7,5.01,0.00,22.2,22.4,00.0,30.9,24.1,08.3,0000.0,0001.72,0001.02,0000.84
2023-01-22 13:27:00,,0819.7,5.02,0.00,22.2,21.8,00.0,30.9,24.0,08.3,0000.0,0001.69,0001.01,0000.83
2023-01-22 13:28:00,,0819.6,5.00,0.00,22.2,21.3,00.0,30.9,23.9,08.3,0000.0,0001.69,0001.01,0000.82
2023-01-22 13:29:00,,0819.7,5.00,0.00,22.1,21.0,00.0,30.9,23.8,08.3,0000.0,0001.67,0001.01,0000.82
2023-01-22 13:30:00,,0819.7,5.00,0.00,22.1,20.8,00.0,30.9,23.7,08.3,0000.0,0001.72,0001.01,0000.81
2023-01-22 13:31:00,,0819.7,5.00,0.00,22.0,20.7,00.0,30.9,23.6,08.3,0000.0,0001.79,0001.04,0000.80
2023-01-22 13:32:00,,0819.7,5.00,0.00,22.0,20.5,00.0,30.9,23.5,08.3,0000.0,0001.85,0001.06,0000.79
2023-01-22 13:33:00,,0819.7,5.00,0.00,21.9,20.4,00.0,30.9,23.5,08.3,0000.0,0001.89,0001.07,0000.79
2023-01-22 13:34:00,,0819.7,5.00,0.00,21.9,20.5,00.0,30.9,23.4,08.3,0000.0,0001.78,0001.06,0000.78
2023-01-22 13:35:00,,0819.7,5.02,0.00,22.0,21.3,00.0,30.8,23.7,08.3,0000.0,0001.69,0001.07,0000.78
2023-01-22 13:36:00,,0819.7,5.00,0.00,22.1,22.3,00.0,30.8,24.0,08.3,0000.0,0001.90,0001.11,0000.78
2023-01-22 13:37:00,,0819.6,4.99,0.00,22.2,22.8,00.0,30.8,24.2,08.2,0000.0,0001.99,0001.15,0000.79
2023-01-22 13:38:00,,0819.7,5.00,0.00,22.2,22.3,00.0,30.9,24.1,08.2,0000.0,0002.07,0001.18,0000.79
2023-01-22 13:39:00,,0819.7,5.02,0.00,22.2,21.7,00.0,30.9,24.0,08.2,0000.0,0002.04,0001.17,0000.80
2023-01-22 13:40:00,,0819.7,4.99,0.00,22.2,21.3,00.0,30.9,23.9,08.2,0000.0,0001.95,0001.14,0000.81
2023-01-22 13:41:00,,0819.6,5.00,0.00,22.2,21.0,00.0,30.9,23.8,08.2,0000.0,0001.89,0001.13,0000.82
2023-01-22 13:42:00,,0819.7,5.02,0.00,22.1,20.7,00.0,30.9,23.7,08.2,0000.0,0001.85,0001.12,0000.82
2023-01-22 13:43:00,,0819.7,4.98,0.00,22.1,20.5,00.0,30.9,23.7,08.2,0000.0,0001.80,0001.10,0000.81
2023-01-22 13:44:00,,0819.7,5.00,0.00,22.0,20.4,00.0,30.9,23.6,08.3,0000.0,0001.72,0001.07,0000.80
2023-01-22 13:45:00,,0819.7,5.00,0.00,22.0,20.3,00.0,30.9,23.5,08.3,0000.0,0001.91,0001.10,0000.80
2023-01-22 13:46:00,,0819.7,5.00,0.00,22.0,20.2,00.0,30.9,23.5,08.4,0000.0,0001.96,0001.11,0000.79
2023-01-22 13:47:00,,0819.7,5.01,0.00,22.0,20.9,00.0,30.8,23.6,08.4,0000.0,0001.67,0001.03,0000.76
2023-01-22 13:48:00,,0819.7,5.00,0.00,22.1,21.9,00.0,30.8,23.9,08.3,0000.0,0001.63,0001.01,0000.75
2023-01-22 13:49:00,,0819.8,5.00,0.00,22.2,22.7,00.0,30.9,24.2,08.3,0000.0,0001.61,0001.01,0000.74
2023-01-22 13:50:00,,0819.7,4.99,0.00,22.2,22.4,00.0,30.9,24.2,08.3,0000.0,0001.62,0001.01,0000.74
2023-01-22 13:51:00,,0819.7,5.00,0.00,22.3,21.9,00.0,30.9,24.1,08.3,0000.0,0001.64,0001.02,0000.73
2023-01-22 13:52:00,,0819.7,5.02,0.00,22.2,21.4,00.0,30.9,24.0,08.3,0000.0,0001.63,0001.01,0000.73
2023-01-22 13:53:00,,0819.7,5.00,0.00,22.2,21.1,00.0,31.0,23.9,08.3,0000.0,0001.61,0000.98,0000.72
2023-01-22 13:54:00,,0819.7,5.00,0.00,22.2,20.9,00.0,31.0,23.8,08.4,0000.0,0001.63,0000.98,0000.72
2023-01-22 13:55:00,,0819.7,5.00,0.00,22.1,20.8,00.0,31.0,23.7,08.4,0000.0,0001.66,0000.99,0000.72
2023-01-22 13:56:00,,0819.7,5.00,0.00,22.1,20.6,00.0,30.9,23.6,08.4,0000.0,0001.48,0000.96,0000.73
2023-01-22 13:57:00,,0819.6,5.00,0.00,22.0,20.5,00.0,30.9,23.6,08.4,0000.0,0001.53,0000.96,0000.73
2023-01-22 13:58:00,,0819.7,4.99,0.00,22.0,20.3,00.0,30.9,23.5,08.4,0000.0,0001.65,0000.98,0000.74
2023-01-22 13:59:00,,0819.7,5.00,0.00,21.9,20.4,00.0,30.9,23.5,08.5,0000.0,0001.60,0000.98,0000.76
